Regional Weather Roundup
Issued by NWS Wakefield, VA

Home | Current Version | Previous Version | Text Only | Print | Product List | Glossary Off
Versions: 1 2 3 4 5 6 7 8 9 10 11 12 13 14 15 16 17 18 19 20 21 22 23 24 25 26 27 28 29 30 31 32 33 34 35 36 37 38 39 40 41 42 43 44 45 46 47 48 49 50

105
ASUS41 KAKQ 051314
RWRAKQ

REGIONAL WEATHER ROUNDUP
NATIONAL WEATHER SERVICE WAKEFIELD VA
800 AM EST FRI FEB 05 2016

Note: "fair" indicates few or no clouds below 12,000 feet with no
significant weather and/or obstructions to visibility. * = Denotes
station may not report precipitation (e.g., rain,snow,etc.),
thunder or fog.

VAZ042-051-052>054-056-051400-
NORTHERN VIRGINIA

CITY           SKY/WX    TMP DP  RH WIND       PRES   REMARKS
WASH NATIONAL  FLURRIES  37  26  64 NW21G26   30.19R
DULLES         MOCLDY    36  22  56 NW21G31   30.20R WCI  25
FORT BELVOIR   FAIR      37  24  59 NW17G24   30.19R
QUANTICO       FLURRIES  39  26  59 N14G29    30.21R
FREDERICKSBRG* CLOUDY    37  26  63 NW12G20   30.20R
STAFFORD*      MOCLDY    36  23  60 NW17G26   30.25R
WARRENTON      MOCLDY    37  24  60 NW14G23   30.21R
CULPEPER*      FAIR      35  19  52 N14G22    30.22R
MANASSAS*      CLOUDY    36  25  64 NW17G26   30.21R
LEESBURG*      CLOUDY    36  27  69 NW21G32   30.20R WCI  24
WINCHESTER     MOCLDY    32  21  64 NW17G26   30.21R WCI  21
FRONT ROYAL*   FAIR      32  19  59 NW16G24   30.20R WCI  21
LURAY*         FAIR      32  21  64 NW9G23    30.23R
$$

VAZ048-049-060>072-079>083-051400-
CENTRAL AND SOUTH CENTRAL VIRGINIA

CITY           SKY/WX    TMP DP  RH WIND       PRES   REMARKS
RICHMOND       MOCLDY    36  28  73 NW14      30.19R
CHESTERFIELD*  PTSUNNY   36  21  55 NW8       30.21R
PETERSBURG*    CLOUDY    37  33  85 W6        30.21R
HANOVER        MOCLDY    36  27  69 NW8       30.22R
TAPPAHANNOCK*  FLURRIES  35  35  97 NW7       30.17R
QUINTON*       CLOUDY    35  32  88 NW6       30.18R
CHARLOTTSVILLE MOCLDY    36  17  46 NW13G20   30.22R
GORDONSVILLE*  CLOUDY    35  21  56 NW8       30.21R
ORANGE*        MOCLDY    36  23  60 W9        30.23R
LOUISA*        CLOUDY    37  27  65 NW7       30.20R
BUMPASS*       CLOUDY    37  24  61 NW9G21    30.20R
FARMVILLE*     MOCLDY    37  23  58 N6        30.21R
CREWE*         CLOUDY    35  35 100 NW7       30.21R
FORT PICKETT*  PTSUNNY   34  33  97 NW3       30.20R
CHASE CITY*    CLOUDY    36  34  94 NW6       30.22R
CLARKSVILLE*   CLOUDY    36  34  93 NW5       30.22R
SOUTH HILL*    CLOUDY    34  33  96 CALM      30.27R
LAWRENCEVILLE* CLOUDY    35  33  95 NW6       30.20R
EMPORIA*       CLOUDY    34  32  93 W6        30.21R
$$

VAZ088>098-051400-
SOUTHEAST VIRGINIA

CITY           SKY/WX    TMP DP  RH WIND       PRES   REMARKS
NORFOLK        LGT SNOW  35  32  88 N15G25    30.14R FOG
VIRGINIA BEACH LGT SNOW  37  32  82 N26       30.11R
NORFOLK NAVAL  LGT RAIN  36  33  89 N23G29    30.16R FOG     WCI  24
WEST POINT*    CLOUDY    34  33  96 NW3       30.19R
SALUDA*        NOT AVBL
NEWPORT NEWS   LGT SNOW  34  33  96 N14G23    30.18R VSB 1   WCI  25
LANGLEY AFB    LGT SNOW  34  32  93 N15G23    30.14R FOG     WCI  24
FORT EUSTIS    LGT SNOW  35  35 100 N15G22    30.13R
WILLIAMSBURG*  MOCLDY    36  36 100 NW10G16   30.18R
HR EXEC AP*    CLOUDY    37  32  81 NW9G18    30.17R
FRANKLIN*      LGT RAIN  35  32  90 NW7G16    30.19R
US460-WAKEFLD  MOCLDY    36  32  85 N8        30.16F
$$

VAZ020-022-025-037-045-051400-
WEST CENTRAL AND SOUTHWEST VIRGINIA

CITY           SKY/WX    TMP DP  RH WIND       PRES   REMARKS
STAUNTON*      FAIR      33  17  51 NW8       30.25R
WAYNESBORO*    FAIR      29  13  51 NW10G16   30.21R WCI  19
HOT SPRINGS VA FLURRIES  20  15  81 NW20G29   30.07R WCI   4
LYNCHBURG      FAIR      33  17  51 VRB7      30.24R
DANVILLE       FAIR      35  22  58 NW10G18   30.26R
SOUTH BOSTON*  PTSUNNY   35  29  79 NW8       30.24R
MARTINSVILLE   FAIR      31  15  53 NW9G22    30.29R
ROANOKE        FAIR      31  16  54 NW15G24   30.28R WCI  20
BLACKSBURG     FAIR      27  17  65 NW10G17   30.26R WCI  17
DUBLIN*        FAIR      28  15  59 NW12      30.26R WCI  18
MARION*        FAIR      25  13  61 W17G28    30.29R WCI  11
HILLSVILLE*    FAIR      23  13  64 NW15G21   30.19R WCI  10
RICHLANDS*     PTSUNNY   22  14  71 NW7       30.30R
WISE*          FAIR      23  14  68 NW8       30.32R
ABINGDON*      FAIR      27  14  57 W7        30.35R
$$

MDZ021>025-VAZ099-100-051400-
SOUTHERN MARYLAND AND THE DELMARVA PENINSULA

CITY           SKY/WX    TMP DP  RH WIND       PRES   REMARKS
PATUXENT RIVER LGT SNOW  35  32  88 NW14      30.16R
BAY BRIDGE APT   N/A     36  34  93 N9        30.16R
LEONARDTOWN    CLOUDY    34  32  93 CALM      30.19R
DOVER          FLURRIES  33  33 100 N21       30.08R WCI  22
GEORGETOWN     LGT SNOW  33  32  96 N9G17     30.10R VSB 3/4
EASTON         LGT RAIN  36  36 100 N7        30.17R
CAMBRIDGE      CLOUDY    34  32  93 NW9       30.16R
SALISBURY      SNOW      33  32  96 NW12      30.10R VSB 1/2 WCI  24
OCEAN CITY     LGT SNOW  33  32  96 N20G29    30.06R VSB 3/4 WCI  21
WALLOPS ISLAND LGT SNOW  33  32  96 NW13      30.13R VSB 1   WCI  24
ACCOMACK*      LGT SNOW  34  32  93 N10G24    30.13R
$$

NCZ012>017-030>032-051400-
NORTH CENTRAL AND EASTERN NORTH CAROLINA

CITY           SKY/WX    TMP DP  RH WIND       PRES   REMARKS
ROANOKE RAPIDS CLOUDY    36  32  87 N13       30.20R
RALEIGH        MOCLDY    38  29  70 CALM      30.24R
ELIZABETH CITY LGT SNOW  35  34  96 NW17G32   30.09R FOG     WCI  25
AHOSKIE*       CLOUDY    35  32  87 N7        30.19R
EDENTON*       DRIZZLE   38  37  95 N23       30.11F
CURRITUCK*     LGT SNOW  35  35  99 NW18G26   30.07R WCI  24
KILL DEVIL HLS RAIN      37  36  94 NW17G30   30.04R
MANTEO         LGT RAIN  38  38  97 N23G33    30.05R
CAPE HATTERAS  LGT RAIN N/A N/A N/A NW16G30   30.04R
TARBORO*       CLOUDY    38  34  82 N14G25    30.21R
GOLDSBORO      CLOUDY    41  41 100 N20G25    30.19R
WASHINGTON     DRIZZLE   38  34  88 NW10G23   30.16R
GREENVILLE     CLOUDY    37  34  87 N16G26    30.19R
NEW BERN       CLOUDY    40  35  83 N15G23    30.18R
WILMINGTON     CLOUDY    43  37  79 N16G22    30.19R
$$

VAZ048-051400-
ELSEWHERE

CITY           SKY/WX    TMP DP  RH WIND       PRES   REMARKS
HARRISBURG PA  CLOUDY    38  23  55 N10       30.15R
BALTIMORE      FLURRIES  36  30  79 W7        30.17R
ANNAPOLIS      CLOUDY    36  34  92 W5        30.16R
ANDREWS AFB    LGT RAIN  35  30  80 NW16      30.15R
PHILADELPHIA   LGT SNOW  35  32  90 N13       30.09F FOG
HENDERSON NC   CLOUDY    36  34  91 NW3       30.22R
GREENSBORO     NOT AVBL
ROCKY MOUNT    CLOUDY    38  33  82 N10       30.22R
$$

VAZ100-051400-
MARINE

STATION/POSITION TIME  TEMP    WIND        PRES    WAVE   SWELL
                       AIR SEA DIR/SP/G            HT/PER HT/PER
                 (UTC) (F)     (DEG/KT/KT) (MB)    (FT/S) (FT/S)
BRANDYWINE LGT   1200   33      20/ 32/ 36 1016.6F
CAPE MAY NJ      1200   33 43   10/  9/ 19 1017.1S
LEWES DE         1200   35 43   10/ 25/ 31 1017.8F
15NM E FENWICK I 1250   36 45              1015.0R  10/ 7
OCEAN-CITY-INLET 1200   34 42  360/ 20/ 24 1016.4R
WACHAPREAGUE VA  1200   34 48  350/ 11/ 19 1016.4R
GOOSES REEF MD   1300   37 40  350/ 14/ 17 1022.0R   2/ 3
COVE POINT MD    1200   35     360/ 21/ 25 1020.3R
SOLOMONS ISLAND  1200   34 42  330/  9/ 15   N/A
BISHOPS HEAD MD  1200   33 38  340/ 12/ 18 1018.7R
POTOMAC MD       1300   35 41  340/ 12/ 14 1021.2R   2/ 3
CAMBRIDGE MD     1200   35 41  350/ 16/ 18 1018.3R
LEWISETTA VA     1200   36 44  350/ 15/ 21 1020.1R
RAPPAHANNOCK LGT 1200          340/ 33/ 38 1017.1R
STINGRAY PT      1300   35 42  340/ 19/ 23 1020.4R   3/ 3
YORK RVR RNG VA  1200   35     350/ 26/ 31 1017.0R
YORKTOWN VA      1200   35 45  330/ 18/ 23 1018.5R
JAMESTOWN VA     1300   35 43  330/ 12/ 14   N/A     1
DOMINION TERM VA 1200   35     350/ 14/ 21 1019.9R
KIPTOPEKE VA     1200      44  360/ 23/ 29   N/A
CHES BAY BRIDGE  1200   36 43  310/ 26/ 33 1019.1R
CAPE HENRY VA    1200   35     330/ 31/ 36   N/A
CHESAPEAKE LGHT  1200   38     340/ 37/ 41 1016.0R
WILLOUBY STN VA  1200   34     330/ 20/ 23 1020.3R
CAPE HENRY BUOY  1228      47                N/A     8/ 6
1ST LANDING BUOY 1300      43                N/A     5/ 4
CAPE CHARLES BUO 1226      46                N/A     6/ 6   2/11
OFFSHORE WE BUOY 1221      49                N/A    10/ 7   2/13
64NM E OF VA BCH 1250   44 53  340/ 33/ 43 1013.5R  11/ 8
DUCK PIER NC     1200   39 46  340/ 29/ 32 1015.1R
44100 DUCK FRF   1224      47                N/A    10/ 7   2/11
44056 DUCK FRF   1211      45                N/A     8/ 7
OREGON INLET NC  1200   40 49  330/ 20/ 32 1015.5R
HATTERAS NC      1200   43 56  320/ 32/ 37 1014.5R
DIAMOND SHLS NC  1250      70  340/ 27/ 35 1015.8R   9/ 7
$$




USA.gov is the U.S. government's official web portal to all federal, state and local government web resources and services.